Theta_e
324 322 322 324 325 328 329 329 330 331 338 341 341 342 342 342 342 341 346 349 348 347 347 346 346 346 345 346 346 347 342 342 345 343 340 345 344 345 348 347 347 347 345 337
320 320 322 324 326 327 327 327 329 329 340 339 340 343 342 342 342 341 342 343 347 347 347 347 347 346 346 347 348 348 346 347 348 349 345 343 345 348 350 346 346 346 344 343
318 321 324 325 324 325 323 329 329 329 333 337 340 341 342 341 342 342 341 342 343 344 345 346 347 347 346 347 347 347 346 345 347 347 348 347 344 348 346 344 343 342 339 337
319 322 323 324 324 324 326 331 332 329 326 335 336 341 339 341 342 342 342 341 342 343 343 344 344 345 345 345 345 344 345 346 345 346 348 346 340 344 345 348 346 340 342 341
321 324 322 323 324 327 328 331 330 329 327 326 330 334 338 339 343 342 342 342 342 342 342 343 343 343 343 344 344 344 345 345 343 340 343 343 341 344 347 347 346 342 344 347
321 325 323 323 325 327 331 331 327 323 322 325 325 326 327 338 341 341 343 342 342 342 342 343 343 344 343 344 344 344 345 345 345 342 338 339 340 345 347 349 350 345 345 346
323 325 323 326 328 329 326 324 326 328 325 327 325 327 327 335 338 341 342 343 343 343 343 343 343 344 344 344 344 344 344 345 346 348 341 337 339 342 349 351 350 344 344 344
324 327 326 328 329 329 328 325 326 330 328 327 327 329 331 334 336 340 342 343 344 344 344 344 344 345 345 345 344 344 346 346 347 350 348 344 343 344 345 346 344 342 346 346
324 327 328 328 329 328 329 328 324 325 325 326 328 336 335 334 333 335 340 343 344 344 345 345 345 345 346 345 345 345 347 348 349 350 351 350 347 348 348 348 345 342 341 345
325 327 326 329 329 328 327 326 327 322 329 330 332 337 335 334 333 333 334 338 344 344 345 346 346 347 348 348 348 349 350 351 346 350 350 348 348 346 346 337 337 344 342 336
321 325 327 330 327 327 325 327 325 322 324 328 335 334 331 333 334 335 338 344 342 344 345 346 347 348 349 349 347 350 352 349 336 350 348 342 333 340 342 336 337 334 335 337
321 321 324 326 327 325 324 324 323 325 327 328 329 333 329 333 333 336 342 346 345 344 344 345 347 348 349 347 343 349 341 349 344 345 341 339 339 339 337 339 342 335 335 336
322 321 326 325 324 325 326 325 324 323 323 327 330 332 329 328 332 337 345 346 346 345 344 346 347 348 349 346 347 343 342 343 342 341 343 341 336 339 339 336 340 337 337 339
328 320 325 328 325 326 327 326 327 325 324 325 329 332 329 329 329 335 346 347 347 347 346 346 347 349 348 345 341 339 340 341 338 340 338 337 335 337 342 339 339 340 340 340
326 325 323 324 326 329 330 328 327 326 325 327 326 330 327 328 334 339 348 348 346 345 345 345 344 342 340 340 341 342 344 342 342 343 343 343 339 337 337 337 339 340 340 338
322 325 327 327 328 326 328 327 329 327 327 330 330 329 329 332 338 343 353 350 345 344 343 342 340 340 341 340 340 343 344 343 341 338 338 338 337 339 339 339 337 334 330 325
323 326 323 328 327 329 331 328 329 329 327 328 334 332 332 332 334 350 355 352 350 346 343 341 342 344 345 342 342 341 339 338 337 335 335 335 334 333 331 328 325 324 325 325
325 324 323 324 327 329 327 327 330 331 330 326 333 333 333 333 334 353 351 353 351 349 345 345 345 344 340 339 338 336 334 331 332 332 332 330 326 324 324 325 327 327 327 326
324 324 329 327 325 327 330 330 329 332 333 335 335 336 344 347 349 349 350 348 349 348 348 346 343 341 339 338 334 329 325 326 328 326 323 320 318 317 318 320 322 325 325 326
322 321 324 327 328 329 326 329 331 332 334 337 336 339 343 340 346 343 346 347 347 347 345 344 342 340 336 328 324 322 320 319 321 322 321 319 320 320 323 326 326 323 325 326
328 325 327 330 328 328 327 327 330 331 331 336 336 338 337 336 342 344 344 344 343 342 341 339 334 330 329 328 327 323 323 322 322 320 317 316 316 321 324 324 323 324 325 324
332 327 326 327 331 332 330 332 330 329 331 336 337 338 341 344 343 342 342 341 339 337 335 334 333 332 332 331 328 321 320 318 317 314 311 311 314 319 321 322 323 323 323 323
335 329 331 326 327 326 338 331 335 335 337 338 339 340 341 342 340 339 337 336 335 334 334 333 332 331 331 326 322 321 317 317 315 312 309 311 314 317 321 320 321 322 322 322
331 331 333 332 337 335 338 337 336 336 337 339 339 342 342 339 338 336 336 334 334 333 333 332 331 326 321 321 321 317 317 315 310 308 309 311 317 319 319 319 319 320 320 321
325 331 337 337 336 336 337 339 338 338 339 341 342 341 342 342 338 336 333 332 332 332 331 328 323 322 322 321 317 315 311 308 309 310 315 318 317 319 318 318 318 318 318 319
328 329 338 338 336 334 338 342 340 340 341 341 341 339 340 341 336 334 334 333 333 330 325 324 323 322 318 317 315 311 311 311 313 315 314 315 316 316 316 317 317 317 316 316
Wind_Speed
3 2 9 12 5 5 5 5 7 5 9 6 13 13 22 30 28 23 31 34 35 36 33 31 30 27 26 23 22 18 20 19 16 16 18 15 10 8 8 11 12 16 18 16
4 9 14 6 8 8 9 12 11 5 19 6 11 18 20 27 29 32 34 34 39 38 34 35 33 34 31 27 26 22 20 20 20 18 16 12 10 11 13 12 14 17 20 19
7 11 2 6 11 9 11 8 6 13 11 8 11 4 15 17 24 27 32 36 38 43 41 39 38 35 31 31 29 26 23 21 22 20 16 15 14 15 13 12 11 16 13 7
7 12 8 7 10 7 8 1 6 6 6 6 7 5 10 17 17 22 30 33 39 43 42 42 43 41 39 37 34 30 27 26 27 24 22 22 18 18 15 14 12 8 7 8
10 5 8 7 15 7 7 2 6 5 3 6 3 5 5 13 14 18 29 37 42 47 47 46 44 41 40 38 37 34 30 27 28 30 28 24 22 18 14 14 15 13 12 12
9 14 5 10 14 13 3 3 7 5 3 2 7 7 4 16 27 23 32 38 41 45 47 46 43 40 39 38 36 35 33 28 24 25 26 26 24 20 17 18 18 17 12 14
7 11 10 7 8 5 7 7 4 4 4 6 3 2 10 19 19 28 31 40 41 43 46 48 46 45 41 42 40 35 32 32 27 23 25 24 23 21 18 16 15 17 15 15
7 7 7 5 8 9 5 8 6 5 2 5 5 6 12 14 31 35 43 46 41 40 45 48 48 46 43 42 41 38 31 30 26 23 21 20 20 20 18 18 18 19 20 15
6 7 5 5 6 10 5 2 8 7 2 3 4 5 6 8 9 17 26 30 36 42 44 51 49 46 44 32 32 34 34 25 25 21 23 21 16 17 18 19 21 24 23 17
3 2 6 11 4 1 9 5 1 3 1 4 5 4 4 5 7 6 10 18 33 38 42 47 46 31 23 23 22 25 27 25 14 15 24 11 10 13 21 21 29 24 26 27
9 4 7 0 4 9 1 1 5 5 5 6 1 6 6 6 9 9 14 19 21 34 36 29 25 23 25 27 24 20 20 20 22 26 27 22 21 24 22 31 34 30 32 33
10 6 9 14 10 6 9 12 7 5 5 1 4 5 5 4 9 23 20 26 24 16 28 28 28 27 29 30 27 25 23 17 14 19 23 24 21 36 42 32 37 38 34 34
8 4 8 10 7 4 6 6 6 5 4 6 6 5 2 3 11 22 28 28 27 23 23 30 32 32 31 27 28 21 19 16 20 26 20 24 18 25 32 33 31 35 30 24
20 6 10 12 8 4 5 7 6 8 4 5 6 6 5 5 10 16 26 29 27 25 23 26 30 29 25 24 19 12 13 14 11 6 7 11 16 27 25 33 32 22 20 22
14 10 8 8 9 6 3 6 10 7 7 7 8 12 11 12 12 21 32 30 29 28 26 26 28 26 20 11 8 6 4 3 8 7 8 7 8 3 3 11 23 20 23 26
5 7 8 10 9 8 5 9 8 6 2 3 5 6 7 14 29 26 31 33 31 28 28 26 23 16 10 8 6 7 12 10 6 7 9 9 7 7 9 14 18 24 28 28
7 8 5 10 5 8 3 7 5 6 5 8 6 8 10 5 13 27 30 35 33 31 30 25 20 16 19 18 16 16 12 10 10 9 9 7 8 12 17 20 22 21 21 20
5 7 5 8 5 10 8 7 8 6 7 7 3 14 16 18 18 29 34 38 35 35 33 25 24 24 23 21 17 15 13 12 11 10 7 7 8 10 12 13 14 16 15 16
6 5 3 6 6 4 4 6 6 5 5 4 11 18 24 32 35 16 27 32 36 35 31 31 28 27 23 18 15 11 9 6 3 3 7 10 13 14 14 14 14 12 12 14
6 4 5 4 6 11 7 5 7 6 4 8 28 22 28 26 7 4 27 35 37 35 35 33 26 22 19 15 10 5 3 3 5 8 9 9 7 7 5 6 7 10 12 14
3 3 8 3 3 6 6 11 8 6 8 25 36 41 33 8 13 35 37 37 36 35 31 25 22 19 14 9 4 1 2 5 7 9 8 6 5 4 5 7 10 12 12 14
6 6 4 3 4 4 5 1 10 8 7 37 25 28 28 38 49 44 39 37 33 30 25 19 18 14 11 4 2 4 7 9 11 13 10 9 7 7 9 10 11 13 14 16
2 7 6 8 7 7 3 13 14 18 31 27 43 36 42 51 48 45 41 35 30 26 23 16 12 10 5 2 7 10 11 11 14 16 11 9 7 8 8 13 16 16 18 19
3 4 4 3 1 3 10 15 23 26 38 42 47 44 47 50 47 42 38 35 31 26 21 15 8 5 1 5 9 10 12 16 17 14 11 7 7 9 10 13 16 18 19 19
5 4 5 1 3 12 9 23 33 29 40 41 41 45 49 49 43 42 39 32 26 20 15 8 5 2 3 5 7 11 14 15 13 11 12 12 11 10 8 10 13 15 15 12
3 7 4 6 14 11 9 26 35 43 45 46 48 43 45 44 44 39 34 29 24 18 13 7 2 2 3 5 9 11 12 15 12 11 12 9 8 11 14 13 12 12 14 14
Wind_Direction
248 87 229 236 195 246 272 250 256 217 161 130 165 158 177 180 181 181 177 184 186 193 198 196 200 197 198 196 195 193 196 190 199 208 221 230 235 225 243 268 268 271 277 289
343 232 232 231 256 241 254 263 240 174 162 120 171 170 181 182 186 186 182 183 187 190 193 197 201 205 202 203 206 204 210 210 214 217 223 231 230 237 249 260 270 276 284 301
177 235 72 227 277 277 281 231 166 181 160 35 125 145 192 198 189 190 194 194 192 193 191 192 193 202 206 209 211 217 225 225 222 224 230 234 225 226 245 262 278 290 294 273
230 267 268 276 270 254 257 253 279 160 110 171 184 214 207 191 193 196 197 196 199 199 201 200 201 203 210 217 220 224 225 226 234 230 230 234 236 242 244 257 260 246 241 224
236 244 235 246 248 250 224 150 62 83 88 117 225 92 230 175 201 201 202 202 203 204 204 205 205 209 211 215 220 224 225 226 227 228 231 234 234 234 243 237 234 225 240 242
239 260 165 227 264 233 109 55 46 64 106 35 217 156 241 178 204 199 203 205 204 205 208 211 212 211 213 216 219 223 225 227 231 231 232 234 234 233 233 234 248 244 245 260
314 265 249 231 257 355 75 60 3 356 3 228 302 63 233 209 198 197 198 205 206 206 209 211 211 211 214 215 219 218 225 226 228 232 235 236 241 241 248 251 259 251 249 259
183 299 198 224 194 193 177 144 148 198 216 274 4 251 263 206 189 195 199 204 202 204 208 211 215 214 215 218 218 220 222 227 230 236 241 238 241 242 238 248 259 271 277 268
161 256 281 185 212 141 239 156 188 123 100 35 275 284 319 82 110 149 196 207 202 204 205 214 217 217 218 211 219 225 231 235 234 245 249 247 245 258 266 264 274 263 263 281
243 245 222 258 179 155 153 169 79 7 189 283 294 293 237 93 122 129 87 190 202 207 204 211 214 200 193 190 211 232 236 233 247 246 235 241 268 270 259 256 260 266 259 266
182 97 275 91 187 184 33 121 66 121 130 169 241 276 215 172 151 124 117 107 187 204 203 198 188 183 186 186 198 210 212 203 216 233 229 189 245 274 277 255 244 255 265 268
192 163 233 245 258 227 186 189 146 129 261 162 142 277 339 156 136 112 114 106 105 121 200 183 182 180 184 193 193 198 206 209 210 235 233 260 267 262 262 264 261 270 266 272
177 208 246 309 343 8 203 185 143 117 89 189 131 253 95 164 107 117 119 113 115 113 145 169 180 188 191 185 190 205 209 223 255 280 254 268 212 240 263 251 261 292 258 280
174 144 185 226 206 176 194 180 172 138 128 187 194 175 170 188 127 104 117 117 119 131 149 166 173 175 178 187 193 214 231 250 280 321 288 257 252 272 270 248 250 269 260 273
160 187 170 201 204 176 185 222 183 165 187 164 222 169 192 186 149 126 127 124 129 137 146 154 152 149 157 171 188 201 202 107 104 69 104 142 146 152 241 242 243 257 265 269
226 210 150 210 213 180 211 218 220 205 151 234 136 198 193 182 132 127 134 137 138 139 144 143 142 133 142 171 169 111 102 116 124 104 112 123 139 185 219 239 251 261 270 279
176 164 132 216 195 131 230 207 191 223 198 170 156 202 147 152 129 134 135 139 141 147 150 144 146 144 131 128 121 111 108 116 123 134 149 168 196 228 247 259 266 274 280 285
175 174 174 191 104 219 241 176 153 169 234 197 106 141 144 127 125 143 143 140 144 144 145 149 147 140 140 137 135 135 140 145 154 167 196 238 260 270 273 276 277 284 293 295
160 133 120 141 178 237 247 191 156 140 274 181 130 121 123 114 108 95 146 149 149 146 145 149 148 152 152 151 148 152 149 153 171 258 286 291 289 286 286 285 279 285 299 306
97 78 125 121 143 208 211 205 140 103 247 161 141 145 149 138 123 192 155 151 147 142 148 151 155 160 162 153 157 170 199 263 283 277 279 278 270 279 278 293 304 316 318 321
75 32 175 143 155 276 244 210 183 152 229 170 161 163 164 154 155 149 151 147 143 145 148 153 155 150 139 132 119 36 350 315 327 329 325 318 311 301 324 324 326 327 321 326
163 141 182 93 116 246 211 114 154 192 174 167 165 153 138 128 135 143 147 142 142 143 147 150 142 132 119 109 343 344 339 344 338 338 333 320 316 320 332 334 334 334 334 335
162 176 179 171 203 218 219 226 213 180 161 160 157 159 149 139 139 143 141 142 146 150 146 149 148 127 119 359 339 343 339 336 333 331 327 323 343 357 4 360 353 345 344 346
254 156 119 87 322 133 179 167 162 169 166 164 165 157 151 140 144 146 145 145 146 145 149 155 138 144 96 325 325 333 336 331 328 330 334 7 26 26 17 8 352 352 359 356
201 96 127 66 1 92 77 156 160 154 155 149 149 156 152 150 151 153 147 147 150 154 158 159 155 97 349 332 340 343 338 336 336 353 17 25 18 1 6 355 341 345 356 360
219 164 152 206 195 131 136 144 155 150 148 156 154 144 151 157 157 156 154 159 162 161 158 141 102 4 5 351 356 3 9 11 24 31 24 14 355 347 349 339 327 332 338 324